Location: Blandford
(50.8667°N, 2.1667°W)
Time: 23:37:43
(UTC+00:00)

Cosmos 1741 Rocket - Pass Details

Date: 09 April 2020
Orbit: 762 x 782 km, 74.0° (Epoch: 29 May)

Event Time Altitude Azimuth Distance (km) Brightness Sun altitude
Exits shadow 21:21:09 16° 198° (SSW) 1,967 5.9 -20.8°
Maximum altitude 21:25:30 82° 112° (ESE) 796 3.9 -21.3°
Drops below altitude 10° 21:30:51 10° 26° (NNE) 2,348 6.8 -21.8°
Sets 21:33:15 0° 26° (NNE) 3,279 7.6 -22.1°
